Current weather by "City, St" or "zip code"  
 

Current Conditions: Clearwater Air Park, FL

Mostly Cloudy


77.0 F

Last Updated on May 21 2022, 4:15 am EDT
Humidity: 74%
Wind Speed: E 3.5 mph
Barometer 30.11 in
Dewpoint: 68.0 F
Visibility: 10.00 mi
Precip: --
Heat Index: NA
Wind Chill: NA
Current conditions at:

Clearwater Air Park, FL (KCLW)

Lat: 27.9742 Lon: 82.7563

Local Radar Image active severe weather and emergency alerts image image weather storm and storm spotter reports image weather observation monitoring service image
Local
Radar
Active
Alerts
Storm Reports Obs
Monitoring

Sign-up For Email & Text Message Weather Alert Notification Services



Advertise Here

Observation History for Clearwater Air Park, FL


Time Wind
(mph)
Vis
(mi)
Weather Precip (in) Temperature (F) Relative
Humidity
Wind
Chill
(F)
Heat
Index
(F)
Pressure
Air Dwpt altimeter
(in)
sea level
(mb)
Rmks
4:15 am EDT E 3.5 10.00 Mostly Cloudy -- 77.0 68.0 74% NA NA 30.11 M
3:55 am EDT E 6.9 10.00 Partly Cloudy -- 77.0 66.2 69% NA NA 30.11 M
3:35 am EDT SE 9.2 10.00 Overcast -- 77.0 66.2 69% NA NA 30.10 M
2:55 am EDT E 8.1 10.00 Mostly Cloudy -- 77.0 68.0 74% NA NA 30.10 M
2:35 am EDT SE 5.8 10.00 Mostly Cloudy -- 75.0 68.0 78% NA NA 30.10 M
2:15 am EDT SE 8.1 10.00 Overcast -- 77.0 68.0 74% NA NA 30.10 M
1:55 am EDT SE 9.2 10.00 Overcast -- 77.0 68.0 74% NA NA 30.11 M
1:15 am EDT SE 10.4 G 16.1 10.00 Mostly Cloudy -- 77.0 68.0 74% NA NA 30.10 M
12:55 am EDT SE 6.9 G 16.1 10.00 Mostly Cloudy -- 77.0 68.0 74% NA NA 30.08 M
12:35 am EDT SE 9.2 G 16.1 10.00 Mostly Cloudy -- 77.0 68.0 74% NA NA 30.09 M
12:15 am EDT SE 9.2 G 19.6 10.00 Mostly Cloudy -- 77.0 68.0 74% NA NA 30.10 M
11:55 pm EDT SE 10.4 G 16.1 10.00 Partly Cloudy -- 77.0 68.0 74% NA NA 30.09 M
11:15 pm EDT SE 12.7 G 20.7 10.00 Mostly Cloudy -- 77.0 68.0 74% NA NA 30.09 M
10:15 pm EDT SE 15.0 G 21.9 10.00 Overcast -- 77.0 69.8 79% NA NA 30.08 M
9:55 pm EDT SE 13.8 G 20.7 10.00 Light Rain -- 77.0 69.8 79% NA NA 30.07 M
9:35 pm EDT SE 8.1 10.00 Mostly Cloudy -- 81.0 71.6 74% NA 85 30.06 M
9:15 pm EDT SE 4.6 10.00 Mostly Cloudy -- 81.0 71.6 74% NA 85 30.05 M
8:55 pm EDT N 0.0 10.00 Mostly Cloudy -- 81.0 71.6 74% NA 85 30.05 M
8:35 pm EDT S 5.8 10.00 Partly Cloudy -- 81.0 71.6 74% NA 85 30.04 M
8:15 pm EDT S 6.9 10.00 Partly Cloudy -- 81.0 71.6 74% NA 85 30.04 M
7:55 pm EDT S 6.9 10.00 Overcast -- 81.0 71.6 74% NA 85 30.04 M
6:55 pm EDT SW 3.5 10.00 Overcast -- 82.0 71.6 70% NA 86 30.01 M
5:55 pm EDT SW 9.2 10.00 Partly Cloudy -- 82.0 71.6 70% NA 86 30.01 M
5:15 pm EDT S 8.1 10.00 Partly Cloudy -- 82.0 69.8 66% NA 86 30.00 M

Regional Weather Observation


Tampa, Vandenberg Airport, FL (KVDF)

Partly Cloudy
NULL F

St. Petersburg/Clearwater Airport, FL (KPIE)

Mostly Cloudy
76.0 F

Brooksville-Tampa Bay Regional Airport, FL (KBKV)

Thunderstorm Heavy Rain Fog/Mist
70.0 F

Tampa, Tampa International Airport, FL (KTPA)

A Few Clouds
78.0 F

Plant City, Plant City Municipal Airport, FL (KPCM)

Partly Cloudy
75.0 F

Tampa, Peter O Knight Airport, FL (KTPF)

Mostly Cloudy
NULL F

Advertise Here


Advertise Here